Location: Ariel
(45.9570°N, 122.5700°W)
Time: 19:58:47
(UTC-07:00)

DX 1 - Visible Passes

Search period start: 13 October 2019 00:00
Search period end: 23 October 2019 00:00
Orbit: 619 x 631 km, 98.4° (Epoch: 13 October)

Date Brightness Start Highest point End Pass type
(mag) Time Alt. Az. Time Alt. Az. Time Alt. Az.
13 Oct ? 04:52:20 13° NNW 04:52:20 13° NNW 04:52:45 10° NNW visible
13 Oct ? 19:44:50 10° NW 19:45:16 10° NW 19:45:44 10° WNW visible
16 Oct ? 19:02:42 10° NNW 19:06:08 23° WNW 19:09:32 10° WSW visible
17 Oct ? 19:22:08 10° NNW 19:24:47 16° WNW 19:27:25 10° W visible
18 Oct ? 19:42:15 10° NW 19:43:22 11° WNW 19:44:30 10° WNW visible
20 Oct ? 18:41:31 10° N 18:45:30 36° WNW 18:49:27 10° SW visible
21 Oct ? 19:00:41 10° N 19:04:12 24° WNW 19:07:42 10° WSW visible
22 Oct ? 19:20:03 10° NNW 19:22:51 17° WNW 19:25:38 10° WSW visible
